Location: Decatur Area Astronomy Club
(40.0275°N, 88.7810°W)
Time: 18:46:53
(UTC-05:00)

Daily predictions for brighter satellites

Satellite Brightness Start Highest point End
(mag) Time Altitude Azimuth Time Altitude Azimuth Time Altitude Azimuth
Cosmos 1624 Rocket 4.0 20:10:37 10° SSW 20:15:57 80° ESE 20:21:18 10° NNE
Cosmos 2082 4.4 20:10:24 10° NNW 20:16:03 61° WSW 20:21:39 10° S
Spot 2 Rocket 3.7 20:11:58 10° SSE 20:16:56 55° ENE 20:21:56 10° N
NOSS 3-1 (C) 3.4 20:11:23 10° SSW 20:17:03 81° ESE 20:23:26 10° NE
Atlas Centaur 2 3.6 20:11:20 10° SW 20:18:23 34° S 20:24:26 10° ESE
CZ-4C R/B 3.1 20:14:55 10° NW 20:22:13 85° WSW 20:30:14 10° SSE
Cosmos 2227 Rocket 3.5 20:17:27 10° NW 20:22:46 43° WSW 20:28:04 10° S
Cosmos 1782 Rocket 3.5 20:19:22 10° S 20:23:40 74° E 20:28:01 10° NNE
SeaSat 1 2.5 20:19:33 10° NNE 20:24:27 62° ESE 20:29:20 10° SSW
Cosmos 1378 Rocket 4.0 20:20:56 10° NNW 20:25:22 70° W 20:29:45 10° S
CZ-2D R/B 3.3 20:22:16 10° SSE 20:26:09 90° ENE 20:30:02 10° NNW
Cosmos 1980 Rocket 2.2 20:24:33 10° S 20:30:05 65° ESE 20:35:39 10° NNE
Cosmos 2151 Rocket 4.4 20:29:19 10° SSE 20:33:07 29° E 20:36:55 10° NNE
Sich 1 Rocket 4.5 20:29:14 10° SSW 20:33:30 53° W 20:37:49 10° N
Cosmos 44 Rocket 4.0 20:29:19 10° NNW 20:33:42 36° NE 20:37:44 12° ESE
Tiangong 1 1.3 20:32:43 10° W 20:35:28 57° N 20:38:11 10° ENE
BREEZE-M DEB (TANK) 2.6 20:34:58 10° SSW 20:37:33 47° SE 20:43:33 10° ENE
Cosmos 1655 Rocket 4.1 20:32:09 10° S 20:38:14 58° E 20:44:25 10° NNE
Cosmos 921 Rocket 2.8 20:36:41 10° S 20:40:51 76° ESE 20:45:01 10° NNE
Cosmos 1975 Rocket 3.1 20:36:41 10° N 20:41:11 88° W 20:45:37 10° S
USA 186 2.0 20:39:22 10° S 20:42:39 77° W 20:46:02 10° NNW
Cosmos 2026 Rocket 4.0 20:37:17 10° S 20:43:36 84° E 20:50:01 10° N
Envisat 3.0 20:40:40 10° SSE 20:45:44 79° ENE 20:50:50 10° N
ERBS 2.5 20:43:15 10° SSW 20:46:38 50° SE 20:50:00 10° NE
YAOGAN 6 3.3 20:44:06 14° SE 20:46:46 34° ENE 20:50:01 10° N
Cosmos 1697 Rocket 3.6 20:41:32 10° SW 20:47:00 54° WNW 20:52:32 10° NNE
ERS-1 Rocket 4.2 20:45:59 14° ESE 20:49:10 26° ENE 20:53:15 10° NNE
Meteor 1-11 Rocket 4.2 20:44:09 10° SSE 20:49:36 41° E 20:54:58 10° NNE
Cosmos 1633 2.5 20:46:04 10° S 20:49:39 87° E 20:53:18 10° N
Cosmos 2056 Rocket 4.4 20:45:58 10° SW 20:50:57 53° WNW 20:56:03 10° N
Cosmos 2227 4.3 20:51:34 10° NNW 20:57:10 63° ENE 21:01:40 16° SE
Helios 1B rocket 2.7 20:59:26 10° NNE 21:03:23 46° E 21:07:19 10° S
ATLAS 3B R/B 4.4 20:58:41 10° NNW 21:03:26 19° NNE 21:08:03 10° ENE
Cosmos 1939 Rocket 2.8 20:59:35 10° SSE 21:03:35 89° ENE 21:07:34 10° NNW
Cosmos 2360 4.4 20:59:03 10° SSW 21:04:44 78° WNW 21:10:28 10° NNE
Cosmos 1536 Rocket 3.8 21:01:08 10° N 21:05:21 50° E 21:08:01 21° SSE
Cosmos 1602 3.6 21:03:57 10° S 21:07:48 84° E 21:11:40 10° N
Okean 2 Rocket 4.1 21:05:32 10° SSW 21:09:53 50° W 21:14:18 10° N
SWAS 4.4 21:10:25 10° NNW 21:14:42 86° WSW 21:17:18 23° SSE
Cosmos 1452 Rocket 3.6 21:09:42 10° SSW 21:14:59 81° WNW 21:20:18 10° NNE
Okean 1 4.3 21:11:49 10° NNW 21:15:37 45° W 21:19:25 10° SSW
Cosmos 1536 3.1 21:15:57 25° SSE 21:18:01 47° E 21:21:57 10° NNE
Cosmos 1850 Rocket 4.5 21:14:04 10° N 21:19:12 46° ENE 21:21:38 27° ESE
Cosmos 1420 Rocket 3.9 21:16:02 10° SSW 21:21:12 80° ESE 21:26:24 10° NNE
Uosat 12 SS-18 rocket 4.4 21:16:48 10° SSW 21:21:22 57° ESE 21:26:56 10° NE
Cosmos 839 Rocket 4.1 21:16:17 10° SW 21:22:36 79° WNW 21:28:51 10° NNE
Lacrosse 5 rocket 1.1 21:19:45 10° NW 21:23:27 72° NE 21:24:42 40° ESE
Meteor 1-19 Rocket 4.3 21:21:21 10° N 21:27:16 85° W 21:32:02 16° S
EXPRESS MD2 3.4 21:25:08 10° WSW 21:27:51 63° NNW 21:32:45 10° NE
Cosmos 44 3.1 21:25:30 10° NW 21:29:55 77° WSW 21:31:59 32° SSE
ATLAS 2AS CENTAUR R/B 3.3 21:23:00 10° S 21:30:04 44° ESE 21:37:34 10° NE
MetOp-A 4.3 21:27:45 29° SE 21:30:18 55° ENE 21:35:31 10° N
Helios 1A 3.2 21:28:44 21° S 21:31:29 69° WSW 21:35:45 10° NNW
DELTA 2 R/B (1) 3.7 21:28:19 10° W 21:33:52 65° SSW 21:36:11 35° SE
GPS 2-05 Rocket1 3.9 21:32:56 10° WSW 21:35:11 30° SSW 21:35:11 30° SSW
Cosmos 2322 Rocket 2.1 21:31:06 10° SSW 21:36:47 79° ESE 21:42:30 10° NNE
BREEZE-M DEB (TANK) 4.2 21:33:14 10° WNW 21:37:13 58° SSW 21:45:26 24° SE
NOSS 2-3 (E) 3.7 21:36:28 10° SSW 21:41:01 63° ESE 21:46:15 10° NE
Cosmos 2263 Rocket 2.4 21:36:41 10° NNW 21:42:18 55° ENE 21:44:12 38° ESE
SAR-Lupe-4 3.4 21:41:53 60° SSE 21:42:29 90° WSW 21:46:06 10° NNW
ARGOS 3.2 21:41:52 38° SE 21:43:45 59° ENE 21:49:02 10° N
SL-16 R/B 2.1 21:39:39 10° SSW 21:45:19 88° WNW 21:51:01 10° NNE
Resurs 01 Rocket 4.4 21:46:45 10° WSW 21:48:53 13° W 21:51:03 10° WNW
Cosmos 2315 Rocket 4.1 21:44:00 10° N 21:50:11 60° E 21:52:23 39° SE
CZ-4B DEB 3.5 21:50:11 40° WSW 21:50:13 40° W 21:52:58 10° NNW
Okean 2 4.0 21:46:27 10° N 21:49:57 38° ENE 21:49:57 38° ENE
YAOGAN 11 4.4 21:54:44 49° E 21:54:54 49° ENE 21:59:06 10° N
Terra 3.3 21:57:53 23° ENE 21:57:53 23° ENE 22:01:23 10° NNE
Okean 1-7 Rocket 3.6 21:53:55 10° N 21:58:21 58° E 21:58:28 58° E
SAR-Lupe-1 4.3 21:59:34 63° WSW 21:59:41 64° WSW 22:03:15 10° NNW
Cosmos 2266 Rocket 4.1 21:54:33 11° SSW 22:00:28 70° W 22:06:31 10° N
Nadezhda 2 Rocket 4.4 21:58:14 38° SSE 22:00:40 69° E 22:06:50 10° NNE
Okean 1 Rocket 3.1 22:01:25 43° SSW 22:02:44 73° W 22:07:06 10° N
H-2A R/B 2.1 22:03:03 54° ESE 22:03:43 59° ENE 22:08:40 10° N
Meteor 1-5 Rocket 4.2 22:02:22 24° SSW 22:05:43 75° W 22:11:02 10° N
Atlas Centaur 2 3.1 22:00:38 10° WSW 22:07:17 36° S 22:07:34 36° S
Tiangong 1 3.4 22:08:26 10° WNW 22:09:34 21° WNW 22:09:34 21° WNW
Cosmos 2360 Rocket 2.1 22:12:28 61° SE 22:12:50 62° ESE 22:18:24 10° NNE
NOSS 2-3 (C) 4.1 22:10:01 10° SW 22:14:38 68° NW 22:20:04 10° NNE
Cosmos 1607 4.0 22:09:34 10° NNW 22:16:03 74° ENE 22:17:31 55° ESE
Cosmos 1741 Rocket 4.4 22:11:28 10° NNW 22:16:35 56° WSW 22:17:54 44° SSW
Cosmos 1238 Rocket 4.2 22:11:46 10° N 22:18:26 58° E 22:19:27 53° ESE
Cosmos 1745 Rocket 4.5 22:25:32 41° ENE 22:25:32 41° ENE 22:30:44 10° NNE
USA 245 4.3 22:23:53 50° SSW 22:25:07 64° WSW 22:29:58 10° NNW
SL-08 RB Rocket 3.9 22:25:29 65° WSW 22:25:39 66° WSW 22:30:13 10° NNW
USA 238 DEB 4.3 22:20:41 10° NNW 22:27:31 48° NE 22:29:14 41° E
USA 238 4.3 22:20:48 10° NNW 22:27:38 47° NE 22:29:21 40° E
ERS-1 Rocket 4.2 22:26:00 28° SW 22:27:45 36° W 22:32:24 10° NNW
SPOT 5 3.1 22:27:37 61° SW 22:28:07 66° WSW 22:32:55 10° NNW
Cosmos 1025 Rocket 3.5 22:25:16 10° NNW 22:29:13 56° WNW 22:29:13 56° WNW
H-2A R/B 3.9 22:36:33 22° NE 22:36:33 22° NE 22:38:42 10° N
Lacrosse 5 3.5 22:41:51 24° NE 22:41:51 24° NE 22:43:49 10° NE
DMSP B5D2-2 4.0 22:34:33 10° NNE 22:39:27 77° NE 22:39:27 77° NE
Cosmos 1932 4.3 22:36:47 10° NNW 22:43:18 81° WSW 22:43:52 74° S
Nimbus 7 Rocket 4.4 22:39:02 10° NNE 22:44:54 77° WNW 22:45:59 60° SW
Cosmos 1066 Rocket 4.2 22:41:03 10° N 22:45:59 72° NNE 22:45:59 72° NNE
ATLAS 3B R/B 2.4 22:48:32 10° NNW 22:55:18 77° ENE 22:55:32 76° E
Cosmos 2278 Rocket 3.6 23:14:12 10° N 23:18:23 29° NE 23:18:23 29° NE
Nadezhda 1 Rocket 4.0 23:12:51 10° N 23:18:41 76° NNW 23:18:41 76° NNW
ATLAS 2AS CENTAUR R/B 3.9 23:13:39 10° WSW 23:21:04 47° NW 23:28:53 10° NNE
Cosmos 2263 Rocket 4.1 23:21:41 10° NW 23:25:44 20° W 23:25:54 20° WSW
Terra 3.5 23:36:47 29° WNW 23:36:47 29° WNW 23:39:36 10° NNW
Cosmos 1844 Rocket 3.4 23:29:57 10° NNW 23:34:09 51° NNW 23:34:09 51° NNW
COSMOS 2428 3.5 23:42:03 49° NNW 23:42:03 49° NNW 23:46:39 10° NNE
H-2A R/B 4.3 23:43:41 15° W 23:43:41 15° W 23:46:27 10° NW
Cosmos 2219 Rocket 3.4 23:47:14 37° NNE 23:47:14 37° NNE 23:50:35 10° NNE
CENTAUR R/B 4.2 23:42:33 10° NNW 23:49:28 33° NE 23:52:00 28° ENE
